Погода в Тапледжанге

Непал     27°21′40″N   87°40′33″E
темп.,
°C
ветер,
м/с
пор.,
м/с
влажн.,
%
обл.,
%
осадки,
мм/ч
давл.,
гПа
погр.,
м
10 мая, пн
пн1023:45+13св11874 1.1 101227
02:45+12св118520 0.6 101121
05:45+13всв118123 0.6 101222
08:45+20зюз115861 0.1 1011654
11:45+23ююз324712 0.8 10091794
14:45+21ююз336083 2.1 10071001
17:45+17юз128399 7.4 1008150
20:45+15всв22847 2.4 101028
11 мая, вт
вт1123:45+14св118664 3.1 101127
02:45+15ююв118099 0.5 100917
05:45+15св128271 0.6 101047
08:45+20зсз116140 0.1 1010508
11:45+23ююз334847 1.1 10081839
14:45+23юз225247 1.9 10051508
17:45+20юз116611 3.1 100342
20:45+15в118923 2.6 101026
12 мая, ср
ср1223:45+15в118431 3.8 100923
02:45+15ссв119098 2.2 100955
05:45+15вюв118799 2.9 100930
08:45+19ссз2171100 1.2 1010391
11:45+17юз3486100 8.4 1010459
14:45+16всв2284100 9.3 1009250
17:45+16всв1180100 9.4 100749
20:45+15юв118061 0.0 100914
13 мая, чт
чт1323:45+14в1180100 0.0 100921
02:45+14св227884 0.0 100825
05:45+14св117751 0.1 101023
08:45+21юз2253100 0.3 1009690
11:45+21ююз3359100 2.8 10081131
14:45+17с2280100 3.7 1008186
17:45+18юз11703 4.4 100556
20:45+14всв1181100 0.0 100822
14 мая, пт
пт1423:45+14всв117792 0.1 100915
02:45+14св1179100 0.1 100811
05:45+14св117781 0.2 100822
08:45+20зсз115670 0.4 1009593
11:45+23юз335118 1.5 10071639
14:45+22ююз335732 2.0 10041401
17:45+18ююз22796 6.4 100593
20:45+15св22885 2.6 100824